Flag for U.S.A. Weather past 2 weeks in Cincinnati, Ohio, U.S.A.

Now
45 °F

Passing clouds.


Feels Like: 43 °F
Forecast: 38 / 57 °F
Wind: 5 mph from Northeast

Location: Cincinnati Municipal Airport Lunken Field

Current Time: Oct 21, 2014 at 10:35:44 PM

Latest Report: Oct 21, 2014 at 9:53 PM


Visibility: 10 mi

Pressure: 30.17 "Hg

Humidity: 93%

Dew point: 43 °F

Location of CincinnatiLocation

Historic Weather in Cincinnati — Graph

°F

Cincinnati temperature yesterday

Maximum temperature yesterday: 64 °F (at 2:53 PM)
Minimum temperature yesterday: 42 °F (at 12:53 AM)
Average temperature yesterday: 53 °F

Past Weeks' High & Low Weather Summary

 TemperatureHumidityPressure
High77 °F (Oct 13, 4:53 PM)100% (Oct 6, 8:53 PM)30.26 "Hg (Oct 6, 8:53 PM)
Low38 °F (Oct 12, 3:53 AM)36% (Oct 8, 4:53 PM)29.59 "Hg (Oct 14, 11:53 AM)
Average55 °F84%29.96 "Hg
* Reported Oct 6 8:53 PM — Oct 21 8:53 PM, Cincinnati, Weather by CustomWeather, © 2014

Note: Actual official high and low records may vary slightly from our data, if they occured in-between our weather recording intervals... More about our weather records

Advertising

Cincinnati weather history for previous 24 hours

 ConditionsComfort  
Time TempWeatherWind HumidityBarometerVisibility
8:53 PM
Oct 21
47 °FPassing clouds.No wind86%30.15 "Hg10 mi
7:53 PM50 °FMostly cloudy.8 mph80%30.14 "Hg10 mi
6:53 PM52 °FOvercast.10 mph69%30.12 "Hg10 mi
5:53 PM54 °FOvercast.9 mph62%30.11 "Hg10 mi
4:53 PM54 °FMostly cloudy.7 mph64%30.09 "Hg10 mi
3:53 PM54 °FOvercast.6 mph64%30.07 "Hg10 mi
2:53 PM53 °FOvercast.13 mph64%30.06 "Hg10 mi
1:53 PM54 °FOvercast.10 mph59%30.06 "Hg10 mi
12:53 PM54 °FMostly cloudy.13 mph59%30.05 "Hg10 mi
11:53 AM55 °FMore clouds than sun.14 mph59%30.05 "Hg10 mi
10:53 AM53 °FOvercast.13 mph66%30.04 "Hg10 mi
9:53 AM52 °FOvercast.7 mph75%30.03 "Hg10 mi
8:53 AM50 °FOvercast.6 mph83%30.01 "Hg10 mi
7:53 AM50 °FOvercast.8 mph83%29.99 "Hg10 mi
6:53 AM50 °FPassing clouds.9 mph83%29.97 "Hg10 mi
5:53 AM52 °FOvercast.8 mph83%29.96 "Hg10 mi
4:53 AM53 °FPassing clouds.9 mph83%29.94 "Hg10 mi
3:53 AM55 °FOvercast.8 mph80%29.93 "Hg10 mi
2:53 AM56 °FOvercast.3 mph77%29.92 "Hg10 mi
1:53 AM54 °FPassing clouds.5 mph83%29.92 "Hg10 mi
12:53 AM49 °FPassing clouds.No wind97%29.92 "Hg7 mi
11:53 PM
Oct 20
49 °FClear.No wind97%29.92 "Hg7 mi
10:53 PM55 °FMostly cloudy.No wind90%29.91 "Hg10 mi
Weather by CustomWeather, © 2014

See weather overviewHow to use our weather pages